GW2624 Weather Reports


time (UTC)temp
F
wind
direction
speed
knots
gust
knots
rain 1hr
in
rain 24hr
in
rain mn
in
humidity
%
barometer
mb
20260507060905 34 82 0.0 0.0 0.00 0.00 0.00 81 1017.3
20260507055405 34 82 0.0 0.0 0.00 0.00 0.00 81 1017.1
20260507054904 35 82 0.0 0.0 0.00 0.00 0.00 80 1017.0
20260507054404 35 82 0.0 0.0 0.00 0.00 0.00 80 1017.0
20260507053904 35 82 0.0 0.0 0.00 0.00 0.00 79 1016.9
20260507053405 35 82 0.0 0.0 0.00 0.00 0.00 79 1016.9
20260507052904 36 82 0.0 0.0 0.00 0.00 0.00 78 1016.9
20260507051405 37 82 0.0 0.0 0.00 0.00 0.00 77 1016.7
20260507050905 37 82 0.0 1.7 0.00 0.00 0.00 77 1016.7
20260507050404 37 82 0.0 1.7 0.00 0.00 0.00 76 1016.7
20260507045905 38 82 0.9 1.7 0.00 0.00 0.00 75 1016.6
20260507045404 38 82 0.0 0.0 0.00 0.00 0.00 75 1016.5
20260507044904 38 82 0.0 0.0 0.00 0.00 0.00 74 1016.5
20260507044404 39 82 0.0 0.0 0.00 0.00 0.00 73 1016.3
20260507035905 42 82 0.0 0.0 0.00 0.00 0.00 65 1015.3
20260507034904 43 82 0.0 0.0 0.00 0.00 0.00 64 1015.1
20260507032904 45 82 0.0 1.7 0.00 0.00 0.00 61 1014.8
20260507032404 45 70 0.9 1.7 0.00 0.00 0.00 59 1014.7
20260507031404 46 62 0.9 1.7 0.00 0.00 0.00 55 1014.5
20260507030405 47 62 0.0 2.6 0.00 0.00 0.00 54 1014.3
20260507024404 49 215 0.0 2.6 0.00 0.00 0.00 48 1013.6
20260507023405 50 199 0.9 2.6 0.00 0.00 0.00 45 1013.4
20260507022904 50 215 0.0 1.7 0.00 0.00 0.00 45 1013.3
20260507021904 51 208 0.9 2.6 0.00 0.00 0.00 43 1013.1
20260507021404 51 207 1.7 2.6 0.00 0.00 0.00 42 1013.1
20260507020904 52 197 0.9 2.6 0.00 0.00 0.00 42 1013.0
20260507020404 52 238 0.9 2.6 0.00 0.00 0.00 41 1013.0
20260507015904 52 244 0.9 8.7 0.00 0.00 0.00 40 1012.8
20260507014405 54 267 1.7 6.1 0.00 0.00 0.00 37 1012.6
20260507013404 54 203 2.6 7.0 0.00 0.00 0.00 35 1012.6
20260507003904 56 0 1.7 7.8 0.00 0.00 0.00 36 1011.7
20260507000904 58 223 2.6 7.8 0.00 0.00 0.00 36 1010.8
20260506235904 58 227 1.7 10.4 0.00 0.00 0.00 39 1010.6
20260506234904 58 232 2.6 12.2 0.00 0.00 0.00 36 1010.4
20260506234404 58 244 2.6 12.2 0.00 0.00 0.00 35 1010.4
20260506233904 58 243 3.5 7.0 0.00 0.00 0.00 36 1010.3
20260506233404 57 208 2.6 6.1 0.00 0.00 0.00 43 1010.2
20260506231905 56 188 0.0 2.6 0.00 0.00 0.00 45 1010.2
20260506225404 56 177 1.7 5.2 0.00 0.00 0.00 51 1010.4
20260506224904 55 217 0.9 6.1 0.00 0.00 0.00 49 1010.4
20260506224403 54 288 2.6 10.4 0.00 0.00 0.00 53 1010.4
20260506223905 53 245 0.9 10.4 0.00 0.00 0.00 57 1010.5
20260506223404 52 248 4.3 10.4 0.00 0.00 0.00 57 1010.8
20260506221904 52 322 0.9 5.2 0.00 0.00 0.00 61 1010.5
20260506220904 54 0 1.7 5.2 0.00 0.00 0.00 60 1010.4
20260506220404 56 0 1.7 5.2 0.00 0.00 0.00 52 1010.2
20260506214404 59 217 2.6 10.4 0.00 0.00 0.00 39 1009.2
20260506213904 58 175 2.6 10.4 0.00 0.00 0.00 39 1009.1
20260506213404 58 204 4.3 10.4 0.00 0.00 0.00 40 1009.1
20260506212904 58 183 4.3 10.4 0.00 0.00 0.00 38 1009.1
20260506211404 59 182 5.2 12.2 0.00 0.00 0.00 38 1008.8
20260506205904 58 179 1.7 7.8 0.00 0.00 0.00 40 1008.9
20260506204904 58 200 1.7 11.3 0.00 0.00 0.00 40 1009.2
20260506204404 58 181 3.5 11.3 0.00 0.00 0.00 41 1008.9
20260506203904 58 200 1.7 7.0 0.00 0.00 0.00 42 1009.2
20260506202404 57 192 0.9 5.2 0.00 0.00 0.00 43 1009.3
20260506201904 57 320 0.9 7.0 0.00 0.00 0.00 50 1009.4
20260506201404 57 203 1.7 7.8 0.00 0.00 0.00 43 1009.5
20260506195904 57 193 5.2 10.4 0.00 0.00 0.00 41 1009.5
20260506194904 57 205 4.3 11.3 0.00 0.00 0.00 42 1009.4
20260506193905 58 231 4.3 11.3 0.00 0.00 0.00 41 1009.5
20260506193404 57 186 4.3 10.4 0.00 0.00 0.00 40 1009.4
20260506191904 56 205 2.6 8.7 0.00 0.00 0.00 45 1009.4
20260506185404 55 0 2.6 10.4 0.00 0.00 0.00 51 1009.6
20260506184904 55 0 2.6 10.4 0.00 0.00 0.00 51 1009.7
20260506183905 56 208 3.5 10.4 0.00 0.00 0.00 47 1009.7
20260506175906 55 211 5.2 11.3 0.00 0.00 0.00 53 1010.0
20260506173904 53 183 4.3 11.3 0.00 0.00 0.00 56 1010.1
20260506173404 52 219 2.6 11.3 0.00 0.00 0.00 59 1010.1
20260506172404 52 161 2.6 11.3 0.00 0.00 0.00 58 1010.1
20260506171903 52 106 4.3 11.3 0.00 0.00 0.00 57 1010.1
20260506170904 52 245 2.6 8.7 0.00 0.00 0.00 59 1010.2
20260506165404 51 143 4.3 7.8 0.00 0.00 0.00 61 1010.0
20260506163904 50 139 4.3 10.4 0.00 0.00 0.00 61 1009.8
20260506162904 49 130 3.5 10.4 0.00 0.00 0.00 66 1009.9
20260506161404 48 0 1.7 6.1 0.00 0.00 0.00 68 1009.9
20260506160904 48 0 1.7 6.1 0.00 0.00 0.00 67 1009.9
20260506154904 47 133 1.7 8.7 0.00 0.00 0.00 69 1010.1
20260506154404 47 206 1.7 7.0 0.00 0.00 0.00 69 1010.1
20260506153904 46 0 2.6 7.0 0.00 0.00 0.00 70 1010.1
20260506152405 47 167 2.6 6.1 0.00 0.00 0.00 70 1010.2
20260506150404 45 0 2.6 7.8 0.00 0.00 0.00 75 1010.0
20260506142404 42 0 1.7 7.8 0.00 0.00 0.00 81 1010.0
20260506141904 41 148 2.6 7.8 0.00 0.00 0.00 80 1010.0
20260506141404 41 136 1.7 6.1 0.00 0.00 0.00 81 1010.1
20260506135904 41 106 1.7 4.3 0.00 0.00 0.00 82 1010.2
20260506135404 41 108 0.9 4.3 0.00 0.00 0.00 83 1010.1
20260506133905 40 146 0.0 2.6 0.00 0.00 0.00 83 1010.0
20260506133404 40 146 0.9 4.3 0.00 0.00 0.00 84 1009.9
20260506132904 39 146 0.9 4.3 0.00 0.00 0.00 84 1009.8
20260506131403 39 142 0.9 2.6 0.00 0.00 0.00 85 1009.5
20260506125903 38 141 1.7 4.3 0.00 0.00 0.00 85 1009.4
20260506125404 38 143 2.6 4.3 0.00 0.00 0.00 85 1009.4
20260506124403 37 153 1.7 4.3 0.00 0.00 0.00 86 1009.2
20260506123904 37 138 1.7 4.3 0.00 0.00 0.00 86 1008.9
20260506123405 37 139 0.9 5.2 0.00 0.00 0.00 86 1009.1
20260506122404 37 144 1.7 6.1 0.00 0.00 0.00 86 1009.1
20260506120904 36 105 0.0 0.9 0.00 0.00 0.00 86 1009.0
20260506120404 36 105 0.0 0.9 0.00 0.00 0.00 86 1009.1
20260506114404 36 138 1.7 4.3 0.00 0.00 0.00 86 1008.7
20260506112904 36 154 0.9 2.6 0.00 0.00 0.00 86 1008.5
20260506105903 35 138 1.7 6.1 0.00 0.00 0.00 87 1007.9
20260506105404 36 142 4.3 5.2 0.00 0.00 0.00 87 1007.9
20260506104904 36 141 0.9 2.6 0.00 0.00 0.00 86 1008.2
20260506104404 36 141 0.0 1.7 0.00 0.00 0.00 87 1008.2
20260506103904 36 141 0.9 1.7 0.00 0.00 0.00 87 1008.1
20260506102404 36 141 0.9 1.7 0.00 0.00 0.00 86 1007.9
20260506101904 36 141 0.0 0.0 0.00 0.00 0.00 86 1007.9
20260506101404 36 141 0.0 0.9 0.00 0.00 0.00 86 1007.9
20260506100905 37 141 0.0 0.9 0.00 0.00 0.00 86 1008.0
20260506100404 37 141 0.9 1.7 0.00 0.00 0.00 86 1008.0
20260506095403 37 141 0.0 0.9 0.00 0.00 0.00 86 1008.0
20260506094904 37 141 0.0 0.9 0.00 0.00 0.00 86 1008.0
20260506094403 37 141 0.0 1.7 0.00 0.00 0.00 86 1007.9
20260506093903 37 141 0.9 2.6 0.00 0.00 0.00 86 1008.0
20260506093404 37 141 0.0 2.6 0.00 0.00 0.00 86 1008.0
20260506092404 37 140 1.7 2.6 0.00 0.00 0.00 86 1007.9
20260506091403 37 148 2.6 4.3 0.00 0.00 0.00 86 1007.8
20260506090904 37 153 1.7 2.6 0.00 0.00 0.00 86 1007.8
20260506085904 38 146 0.9 2.6 0.00 0.00 0.00 86 1007.8
20260506081904 39 144 0.9 2.6 0.00 0.00 0.00 86 1007.2
20260506081404 39 144 1.7 2.6 0.00 0.00 0.00 86 1007.2
20260506080904 39 146 1.7 2.6 0.00 0.00 0.00 86 1007.2
20260506073404 40 142 1.7 2.6 0.00 0.00 0.00 85 1007.4
20260506072404 40 155 1.7 2.6 0.00 0.00 0.00 85 1007.3
20260506071904 40 148 0.9 2.6 0.00 0.00 0.00 85 1007.1
20260506070404 41 148 1.7 2.6 0.00 0.00 0.00 85 1007.0
20260506061404 42 145 1.7 2.6 0.00 0.00 0.00 85 1006.5